owner,sensor,date,latitude,longitude,vertical_datum,sea_water_temperature,qcFlag 
TABS,ioos:station:wmo:42048:1,2005-10-13T05:00:00Z,27.9396,-96.8429,-2.0,26.67,11111222 
TABS,ioos:station:wmo:42048:1,2005-10-13T05:30:00Z,27.9396,-96.8429,-2.0,26.66,11111222 
TABS,ioos:station:wmo:42048:1,2005-10-13T06:00:00Z,27.9396,-96.8429,-2.0,26.74,11111222 
TABS,ioos:station:wmo:42048:1,2005-10-13T06:30:00Z,27.9396,-96.8429,-2.0,26.88,11111222 
TABS,ioos:station:wmo:42048:1,2005-10-13T07:00:00Z,27.9396,-96.8429,-2.0,26.98,11111222 
TABS,ioos:station:wmo:42048:1,2005-10-13T07:30:00Z,27.9396,-96.8429,-2.0,26.96,11111222 
TABS,ioos:station:wmo:42048:1,2005-10-13T08:00:00Z,27.9396,-96.8429,-2.0,26.97,11111222 
TABS,ioos:station:wmo:42048:1,2005-10-13T08:30:00Z,27.9396,-96.8429,-2.0,27.04,11111222 
TABS,ioos:station:wmo:42048:1,2005-10-13T09:00:00Z,27.9396,-96.8429,-2.0,27.05,11111222 
TABS,ioos:station:wmo:42048:1,2005-10-13T09:30:00Z,27.9396,-96.8429,-2.0,27.04,11111222 
TABS,ioos:station:wmo:42048:1,2005-10-13T10:00:00Z,27.9396,-96.8429,-2.0,27.05,11111222 
TABS,ioos:station:wmo:42048:1,2005-10-13T10:30:00Z,27.9396,-96.8429,-2.0,27.06,11111222 
TABS,ioos:station:wmo:42048:1,2005-10-13T11:00:00Z,27.9396,-96.8429,-2.0,27.06,11111222 
TABS,ioos:station:wmo:42048:1,2005-10-13T12:00:00Z,27.9396,-96.8429,-2.0,27.07,11111222 
TABS,ioos:station:wmo:42048:1,2005-10-13T12:30:00Z,27.9396,-96.8429,-2.0,27.11,11111222 
TABS,ioos:station:wmo:42048:1,2005-10-13T13:00:00Z,27.9396,-96.8429,-2.0,27.11,11111222 
TABS,ioos:station:wmo:42048:1,2005-10-13T13:30:00Z,27.9396,-96.8429,-2.0,27.14,11111222 
TABS,ioos:station:wmo:42048:1,2005-10-13T14:00:00Z,27.9396,-96.8429,-2.0,27.13,11111222 
TABS,ioos:station:wmo:42048:1,2005-10-13T14:30:00Z,27.9396,-96.8429,-2.0,27.14,11111222 
TABS,ioos:station:wmo:42048:1,2005-10-13T15:00:00Z,27.9396,-96.8429,-2.0,27.18,11111222 
TABS,ioos:station:wmo:42048:1,2005-10-13T15:30:00Z,27.9396,-96.8429,-2.0,27.2,11111222 
TABS,ioos:station:wmo:42048:1,2005-10-13T16:00:00Z,27.9396,-96.8429,-2.0,27.22,11111222 
TABS,ioos:station:wmo:42048:1,2005-10-13T16:30:00Z,27.9396,-96.8429,-2.0,27.25,11111222 
TABS,ioos:station:wmo:42048:1,2005-10-13T17:00:00Z,27.9396,-96.8429,-2.0,27.28,11111222 
TABS,ioos:station:wmo:42048:1,2005-10-13T17:30:00Z,27.9396,-96.8429,-2.0,27.31,11111222 
TABS,ioos:station:wmo:42048:1,2005-10-13T18:30:00Z,27.9396,-96.8429,-2.0,27.31,11111222 
TABS,ioos:station:wmo:42048:1,2005-10-13T19:00:00Z,27.9396,-96.8429,-2.0,27.32,11111222 
TABS,ioos:station:wmo:42048:1,2005-10-13T20:00:00Z,27.9396,-96.8429,-2.0,27.33,11111222 
TABS,ioos:station:wmo:42048:1,2005-10-13T20:30:00Z,27.9396,-96.8429,-2.0,27.32,11111222 
TABS,ioos:station:wmo:42048:1,2005-10-13T21:00:00Z,27.9396,-96.8429,-2.0,27.33,11111222 
TABS,ioos:station:wmo:42048:1,2005-10-13T21:30:00Z,27.9396,-96.8429,-2.0,27.33,11111222 
TABS,ioos:station:wmo:42048:1,2005-10-13T22:00:00Z,27.9396,-96.8429,-2.0,27.3,11111222 
TABS,ioos:station:wmo:42048:1,2005-10-13T23:00:00Z,27.9396,-96.8429,-2.0,27.25,11111222 
TABS,ioos:station:wmo:42048:1,2005-10-13T23:30:00Z,27.9396,-96.8429,-2.0,27.23,11111222 
TABS,ioos:station:wmo:42048:1,2005-10-14T01:00:00Z,27.9396,-96.8429,-2.0,27.08,11111222 
TABS,ioos:station:wmo:42048:1,2005-10-14T01:30:00Z,27.9396,-96.8429,-2.0,27.01,11111222 
TABS,ioos:station:wmo:42048:1,2005-10-14T02:00:00Z,27.9396,-96.8429,-2.0,27.01,11111222 
TABS,ioos:station:wmo:42048:1,2005-10-14T02:30:00Z,27.9396,-96.8429,-2.0,27.01,11111222 
TABS,ioos:station:wmo:42048:1,2005-10-14T03:00:00Z,27.9396,-96.8429,-2.0,26.92,11111222 
TABS,ioos:station:wmo:42048:1,2005-10-14T04:00:00Z,27.9396,-96.8429,-2.0,26.89,11111222 
TABS,ioos:station:wmo:42048:1,2005-10-14T04:30:00Z,27.9396,-96.8429,-2.0,26.88,11111222 
TABS,ioos:station:wmo:42048:1,2005-10-14T05:00:00Z,27.9396,-96.8429,-2.0,26.83,11111222 
TABS,ioos:station:wmo:42048:1,2005-10-14T05:30:00Z,27.9396,-96.8429,-2.0,26.83,11111222 
TABS,ioos:station:wmo:42048:1,2005-10-14T06:00:00Z,27.9396,-96.8429,-2.0,26.88,11111222 
TABS,ioos:station:wmo:42048:1,2005-10-14T06:30:00Z,27.9396,-96.8429,-2.0,26.97,11111222 
TABS,ioos:station:wmo:42048:1,2005-10-14T07:00:00Z,27.9396,-96.8429,-2.0,26.99,11111222 
TABS,ioos:station:wmo:42048:1,2005-10-14T07:30:00Z,27.9396,-96.8429,-2.0,26.93,11111222 
TABS,ioos:station:wmo:42048:1,2005-10-14T08:00:00Z,27.9396,-96.8429,-2.0,26.87,11111222 
TABS,ioos:station:wmo:42048:1,2005-10-14T08:30:00Z,27.9396,-96.8429,-2.0,26.84,11111222 
TABS,ioos:station:wmo:42048:1,2005-10-14T09:00:00Z,27.9396,-96.8429,-2.0,26.79,11111222 
TABS,ioos:station:wmo:42048:1,2005-10-14T09:30:00Z,27.9396,-96.8429,-2.0,26.73,11111222 
TABS,ioos:station:wmo:42048:1,2005-10-14T10:00:00Z,27.9396,-96.8429,-2.0,26.68,11111222 
TABS,ioos:station:wmo:42048:1,2005-10-14T10:30:00Z,27.9396,-96.8429,-2.0,26.64,11111222 
TABS,ioos:station:wmo:42048:1,2005-10-14T11:00:00Z,27.9396,-96.8429,-2.0,26.58,11111222 
TABS,ioos:station:wmo:42048:1,2005-10-14T11:30:00Z,27.9396,-96.8429,-2.0,26.54,11111222 
TABS,ioos:station:wmo:42048:1,2005-10-14T12:00:00Z,27.9396,-96.8429,-2.0,26.51,11111222 
TABS,ioos:station:wmo:42048:1,2005-10-14T12:30:00Z,27.9396,-96.8429,-2.0,26.45,11111222 
TABS,ioos:station:wmo:42048:1,2005-10-14T13:00:00Z,27.9396,-96.8429,-2.0,26.41,11111222 
TABS,ioos:station:wmo:42048:1,2005-10-14T13:30:00Z,27.9396,-96.8429,-2.0,26.4,11111222 
TABS,ioos:station:wmo:42048:1,2005-10-14T14:00:00Z,27.9396,-96.8429,-2.0,26.41,11111222 
TABS,ioos:station:wmo:42048:1,2005-10-14T14:30:00Z,27.9396,-96.8429,-2.0,26.4,11111222 
TABS,ioos:station:wmo:42048:1,2005-10-14T15:00:00Z,27.9396,-96.8429,-2.0,26.39,11111222 
TABS,ioos:station:wmo:42048:1,2005-10-14T15:30:00Z,27.9396,-96.8429,-2.0,26.38,11111222 
TABS,ioos:station:wmo:42048:1,2005-10-14T16:00:00Z,27.9396,-96.8429,-2.0,26.4,11111222 
TABS,ioos:station:wmo:42048:1,2005-10-14T16:30:00Z,27.9396,-96.8429,-2.0,26.41,11111222 
TABS,ioos:station:wmo:42048:1,2005-10-14T17:00:00Z,27.9396,-96.8429,-2.0,26.42,11111222 
TABS,ioos:station:wmo:42048:1,2005-10-14T17:30:00Z,27.9396,-96.8429,-2.0,26.44,11111222 
TABS,ioos:station:wmo:42048:1,2005-10-14T18:00:00Z,27.9396,-96.8429,-2.0,26.45,11111222 
TABS,ioos:station:wmo:42048:1,2005-10-14T18:30:00Z,27.9396,-96.8429,-2.0,26.48,11111222 
TABS,ioos:station:wmo:42048:1,2005-10-14T19:00:00Z,27.9396,-96.8429,-2.0,26.5,11111222 
TABS,ioos:station:wmo:42048:1,2005-10-14T19:30:00Z,27.9396,-96.8429,-2.0,26.51,11111222 
TABS,ioos:station:wmo:42048:1,2005-10-14T20:00:00Z,27.9396,-96.8429,-2.0,26.53,11111222 
TABS,ioos:station:wmo:42048:1,2005-10-14T20:30:00Z,27.9396,-96.8429,-2.0,26.53,11111222 
TABS,ioos:station:wmo:42048:1,2005-10-14T21:00:00Z,27.9396,-96.8429,-2.0,26.51,11111222 
TABS,ioos:station:wmo:42048:1,2005-10-14T21:30:00Z,27.9396,-96.8429,-2.0,26.52,11111222 
TABS,ioos:station:wmo:42048:1,2005-10-14T22:00:00Z,27.9396,-96.8429,-2.0,26.54,11111222 
TABS,ioos:station:wmo:42048:1,2005-10-14T22:30:00Z,27.9396,-96.8429,-2.0,26.57,11111222 
TABS,ioos:station:wmo:42048:1,2005-10-14T23:00:00Z,27.9396,-96.8429,-2.0,26.53,11111222 
TABS,ioos:station:wmo:42048:1,2005-10-14T23:30:00Z,27.9396,-96.8429,-2.0,26.49,11111222 
TABS,ioos:station:wmo:42048:1,2005-10-15T00:00:00Z,27.9396,-96.8429,-2.0,26.46,11111222 
TABS,ioos:station:wmo:42048:1,2005-10-15T00:30:00Z,27.9396,-96.8429,-2.0,26.46,11111222 
TABS,ioos:station:wmo:42048:1,2005-10-15T01:00:00Z,27.9396,-96.8429,-2.0,26.46,11111222 
TABS,ioos:station:wmo:42048:1,2005-10-15T01:30:00Z,27.9396,-96.8429,-2.0,26.46,11111222 
TABS,ioos:station:wmo:42048:1,2005-10-15T02:00:00Z,27.9396,-96.8429,-2.0,26.44,11111222 
TABS,ioos:station:wmo:42048:1,2005-10-15T02:30:00Z,27.9396,-96.8429,-2.0,26.43,11111222 
TABS,ioos:station:wmo:42048:1,2005-10-15T03:00:00Z,27.9396,-96.8429,-2.0,26.44,11111222 
TABS,ioos:station:wmo:42048:1,2005-10-15T03:30:00Z,27.9396,-96.8429,-2.0,26.44,11111222 
TABS,ioos:station:wmo:42048:1,2005-10-15T04:00:00Z,27.9396,-96.8429,-2.0,26.45,11111222 
TABS,ioos:station:wmo:42048:1,2005-10-15T04:30:00Z,27.9396,-96.8429,-2.0,26.45,11111222 
TABS,ioos:station:wmo:42048:1,2005-10-15T05:00:00Z,27.9396,-96.8429,-2.0,26.44,11111222 
TABS,ioos:station:wmo:42048:1,2005-10-15T06:00:00Z,27.9396,-96.8429,-2.0,26.44,11111222 
TABS,ioos:station:wmo:42048:1,2005-10-15T06:30:00Z,27.9396,-96.8429,-2.0,26.45,11111222 
TABS,ioos:station:wmo:42048:1,2005-10-15T07:30:00Z,27.9396,-96.8429,-2.0,26.42,11111222 
TABS,ioos:station:wmo:42048:1,2005-10-15T08:00:00Z,27.9396,-96.8429,-2.0,26.42,11111222 
TABS,ioos:station:wmo:42048:1,2005-10-15T08:30:00Z,27.9396,-96.8429,-2.0,26.41,11111222 
TABS,ioos:station:wmo:42048:1,2005-10-15T09:00:00Z,27.9396,-96.8429,-2.0,26.41,11111222 
TABS,ioos:station:wmo:42048:1,2005-10-15T09:30:00Z,27.9396,-96.8429,-2.0,26.41,11111222 
TABS,ioos:station:wmo:42048:1,2005-10-15T10:00:00Z,27.9396,-96.8429,-2.0,26.41,11111222 
TABS,ioos:station:wmo:42048:1,2005-10-15T10:30:00Z,27.9396,-96.8429,-2.0,26.41,11111222 
TABS,ioos:station:wmo:42048:1,2005-10-15T11:00:00Z,27.9396,-96.8429,-2.0,26.39,11111222 
TABS,ioos:station:wmo:42048:1,2005-10-15T11:30:00Z,27.9396,-96.8429,-2.0,26.37,11111222 
TABS,ioos:station:wmo:42048:1,2005-10-15T12:00:00Z,27.9396,-96.8429,-2.0,26.38,11111222 
TABS,ioos:station:wmo:42048:1,2005-10-15T12:30:00Z,27.9396,-96.8429,-2.0,26.37,11111222 
TABS,ioos:station:wmo:42048:1,2005-10-15T13:30:00Z,27.9396,-96.8429,-2.0,26.35,11111222 
TABS,ioos:station:wmo:42048:1,2005-10-15T14:30:00Z,27.9396,-96.8429,-2.0,26.33,11111222 
TABS,ioos:station:wmo:42048:1,2005-10-15T15:00:00Z,27.9396,-96.8429,-2.0,26.34,11111222 
TABS,ioos:station:wmo:42048:1,2005-10-15T15:30:00Z,27.9396,-96.8429,-2.0,26.35,11111222 
TABS,ioos:station:wmo:42048:1,2005-10-15T16:30:00Z,27.9396,-96.8429,-2.0,26.41,11111222 
TABS,ioos:station:wmo:42048:1,2005-10-15T17:00:00Z,27.9396,-96.8429,-2.0,26.42,11111222 
TABS,ioos:station:wmo:42048:1,2005-10-15T17:30:00Z,27.9396,-96.8429,-2.0,26.47,11111222 
TABS,ioos:station:wmo:42048:1,2005-10-15T18:00:00Z,27.9396,-96.8429,-2.0,26.55,11111222 
TABS,ioos:station:wmo:42048:1,2005-10-15T18:30:00Z,27.9396,-96.8429,-2.0,26.61,11111222 
TABS,ioos:station:wmo:42048:1,2005-10-15T19:00:00Z,27.9396,-96.8429,-2.0,26.71,11111222 
TABS,ioos:station:wmo:42048:1,2005-10-15T19:30:00Z,27.9396,-96.8429,-2.0,26.72,11111222 
TABS,ioos:station:wmo:42048:1,2005-10-15T20:00:00Z,27.9396,-96.8429,-2.0,26.78,11111222 
TABS,ioos:station:wmo:42048:1,2005-10-15T20:30:00Z,27.9396,-96.8429,-2.0,26.91,11111222 
TABS,ioos:station:wmo:42048:1,2005-10-15T21:00:00Z,27.9396,-96.8429,-2.0,26.95,11111222 
TABS,ioos:station:wmo:42048:1,2005-10-15T21:30:00Z,27.9396,-96.8429,-2.0,26.92,11111222 
TABS,ioos:station:wmo:42048:1,2005-10-15T22:00:00Z,27.9396,-96.8429,-2.0,26.89,11111222 
TABS,ioos:station:wmo:42048:1,2005-10-15T22:30:00Z,27.9396,-96.8429,-2.0,26.87,11111222 
TABS,ioos:station:wmo:42048:1,2005-10-15T23:00:00Z,27.9396,-96.8429,-2.0,26.8,11111222 
TABS,ioos:station:wmo:42048:1,2005-10-15T23:30:00Z,27.9396,-96.8429,-2.0,26.73,11111222 
TABS,ioos:station:wmo:42048:1,2005-10-16T00:00:00Z,27.9396,-96.8429,-2.0,26.62,11111222 
TABS,ioos:station:wmo:42048:1,2005-10-16T00:30:00Z,27.9396,-96.8429,-2.0,26.53,11111222 
TABS,ioos:station:wmo:42048:1,2005-10-16T01:30:00Z,27.9396,-96.8429,-2.0,26.45,11111222 
TABS,ioos:station:wmo:42048:1,2005-10-16T02:00:00Z,27.9396,-96.8429,-2.0,26.41,11111222 
TABS,ioos:station:wmo:42048:1,2005-10-16T02:30:00Z,27.9396,-96.8429,-2.0,26.41,11111222 
TABS,ioos:station:wmo:42048:1,2005-10-16T03:00:00Z,27.9396,-96.8429,-2.0,26.41,11111222 
TABS,ioos:station:wmo:42048:1,2005-10-16T04:00:00Z,27.9396,-96.8429,-2.0,26.43,11111222 
TABS,ioos:station:wmo:42048:1,2005-10-16T04:30:00Z,27.9396,-96.8429,-2.0,26.43,11111222 
TABS,ioos:station:wmo:42048:1,2005-10-16T05:00:00Z,27.9396,-96.8429,-2.0,26.45,11111222 
TABS,ioos:station:wmo:42048:1,2005-10-16T06:00:00Z,27.9396,-96.8429,-2.0,26.46,11111222 
TABS,ioos:station:wmo:42048:1,2005-10-16T06:30:00Z,27.9396,-96.8429,-2.0,26.44,11111222 
TABS,ioos:station:wmo:42048:1,2005-10-16T07:00:00Z,27.9396,-96.8429,-2.0,26.45,11111222 
TABS,ioos:station:wmo:42048:1,2005-10-16T07:30:00Z,27.9396,-96.8429,-2.0,26.43,11111222 
TABS,ioos:station:wmo:42048:1,2005-10-16T08:00:00Z,27.9396,-96.8429,-2.0,26.41,11111222 
TABS,ioos:station:wmo:42048:1,2005-10-16T08:30:00Z,27.9396,-96.8429,-2.0,26.4,11111222 
TABS,ioos:station:wmo:42048:1,2005-10-16T10:00:00Z,27.9396,-96.8429,-2.0,26.29,11111222 
TABS,ioos:station:wmo:42048:1,2005-10-16T10:30:00Z,27.9396,-96.8429,-2.0,26.22,11111222 
TABS,ioos:station:wmo:42048:1,2005-10-16T11:00:00Z,27.9396,-96.8429,-2.0,26.16,11111222 
TABS,ioos:station:wmo:42048:1,2005-10-16T11:30:00Z,27.9396,-96.8429,-2.0,26.12,11111222 
TABS,ioos:station:wmo:42048:1,2005-10-16T12:30:00Z,27.9396,-96.8429,-2.0,26.07,11111222 
TABS,ioos:station:wmo:42048:1,2005-10-16T13:00:00Z,27.9396,-96.8429,-2.0,26.05,11111222 
TABS,ioos:station:wmo:42048:1,2005-10-16T13:30:00Z,27.9396,-96.8429,-2.0,26.07,11111222 
TABS,ioos:station:wmo:42048:1,2005-10-16T14:00:00Z,27.9396,-96.8429,-2.0,26.09,11111222 
TABS,ioos:station:wmo:42048:1,2005-10-16T14:30:00Z,27.9396,-96.8429,-2.0,26.17,11111222 
TABS,ioos:station:wmo:42048:1,2005-10-16T15:00:00Z,27.9396,-96.8429,-2.0,26.26,11111222 
TABS,ioos:station:wmo:42048:1,2005-10-16T15:30:00Z,27.9396,-96.8429,-2.0,26.39,11111222 
TABS,ioos:station:wmo:42048:1,2005-10-16T16:00:00Z,27.9396,-96.8429,-2.0,26.44,11111222 
TABS,ioos:station:wmo:42048:1,2005-10-16T16:30:00Z,27.9396,-96.8429,-2.0,26.52,11111222 
TABS,ioos:station:wmo:42048:1,2005-10-16T17:00:00Z,27.9396,-96.8429,-2.0,26.55,11111222 
TABS,ioos:station:wmo:42048:1,2005-10-16T17:30:00Z,27.9396,-96.8429,-2.0,26.51,11111222 
TABS,ioos:station:wmo:42048:1,2005-10-16T18:00:00Z,27.9396,-96.8429,-2.0,26.51,11111222 
TABS,ioos:station:wmo:42048:1,2005-10-16T18:30:00Z,27.9396,-96.8429,-2.0,26.51,11111222 
TABS,ioos:station:wmo:42048:1,2005-10-16T19:00:00Z,27.9396,-96.8429,-2.0,26.53,11111222 
TABS,ioos:station:wmo:42048:1,2005-10-16T19:30:00Z,27.9396,-96.8429,-2.0,26.57,11111222 
TABS,ioos:station:wmo:42048:1,2005-10-16T20:30:00Z,27.9396,-96.8429,-2.0,26.58,11111222 
TABS,ioos:station:wmo:42048:1,2005-10-16T21:00:00Z,27.9396,-96.8429,-2.0,26.54,11111222 
TABS,ioos:station:wmo:42048:1,2005-10-16T21:30:00Z,27.9396,-96.8429,-2.0,26.47,11111222 
TABS,ioos:station:wmo:42048:1,2005-10-16T22:00:00Z,27.9396,-96.8429,-2.0,26.4,11111222 
TABS,ioos:station:wmo:42048:1,2005-10-16T22:30:00Z,27.9396,-96.8429,-2.0,26.33,11111222 
TABS,ioos:station:wmo:42048:1,2005-10-16T23:00:00Z,27.9396,-96.8429,-2.0,26.26,11111222 
TABS,ioos:station:wmo:42048:1,2005-10-16T23:30:00Z,27.9396,-96.8429,-2.0,26.21,11111222 
TABS,ioos:station:wmo:42048:1,2005-10-17T00:00:00Z,27.9396,-96.8429,-2.0,26.13,11111222 
TABS,ioos:station:wmo:42048:1,2005-10-17T00:30:00Z,27.9396,-96.8429,-2.0,26.15,11111222 
TABS,ioos:station:wmo:42048:1,2005-10-17T01:00:00Z,27.9396,-96.8429,-2.0,26.08,11111222 
TABS,ioos:station:wmo:42048:1,2005-10-17T01:30:00Z,27.9396,-96.8429,-2.0,26.05,11111222 
TABS,ioos:station:wmo:42048:1,2005-10-17T02:00:00Z,27.9396,-96.8429,-2.0,25.99,11111222 
TABS,ioos:station:wmo:42048:1,2005-10-17T02:30:00Z,27.9396,-96.8429,-2.0,26.0,11111222 
TABS,ioos:station:wmo:42048:1,2005-10-17T03:00:00Z,27.9396,-96.8429,-2.0,26.01,11111222 
TABS,ioos:station:wmo:42048:1,2005-10-17T03:30:00Z,27.9396,-96.8429,-2.0,26.01,11111222 
TABS,ioos:station:wmo:42048:1,2005-10-17T04:00:00Z,27.9396,-96.8429,-2.0,26.0,11111222 
TABS,ioos:station:wmo:42048:1,2005-10-17T04:30:00Z,27.9396,-96.8429,-2.0,26.02,11111222 
TABS,ioos:station:wmo:42048:1,2005-10-17T05:00:00Z,27.9396,-96.8429,-2.0,26.02,11111222 
TABS,ioos:station:wmo:42048:1,2005-10-17T05:30:00Z,27.9396,-96.8429,-2.0,26.03,11111222 
TABS,ioos:station:wmo:42048:1,2005-10-17T06:00:00Z,27.9396,-96.8429,-2.0,26.04,11111222 
TABS,ioos:station:wmo:42048:1,2005-10-17T06:30:00Z,27.9396,-96.8429,-2.0,26.02,11111222 
TABS,ioos:station:wmo:42048:1,2005-10-17T07:00:00Z,27.9396,-96.8429,-2.0,26.01,11111222 
TABS,ioos:station:wmo:42048:1,2005-10-17T07:30:00Z,27.9396,-96.8429,-2.0,26.01,11111222 
TABS,ioos:station:wmo:42048:1,2005-10-17T08:00:00Z,27.9396,-96.8429,-2.0,26.01,11111222 
TABS,ioos:station:wmo:42048:1,2005-10-17T08:30:00Z,27.9396,-96.8429,-2.0,26.05,11111222 
TABS,ioos:station:wmo:42048:1,2005-10-17T09:00:00Z,27.9396,-96.8429,-2.0,26.07,11111222 
TABS,ioos:station:wmo:42048:1,2005-10-17T09:30:00Z,27.9396,-96.8429,-2.0,26.05,11111222 
TABS,ioos:station:wmo:42048:1,2005-10-17T10:00:00Z,27.9396,-96.8429,-2.0,26.04,11111222 
TABS,ioos:station:wmo:42048:1,2005-10-17T10:30:00Z,27.9396,-96.8429,-2.0,26.06,11111222 
TABS,ioos:station:wmo:42048:1,2005-10-17T11:00:00Z,27.9396,-96.8429,-2.0,26.1,11111222 
TABS,ioos:station:wmo:42048:1,2005-10-17T11:30:00Z,27.9396,-96.8429,-2.0,26.17,11111222 
TABS,ioos:station:wmo:42048:1,2005-10-17T13:00:00Z,27.9396,-96.8429,-2.0,26.32,11111222 
TABS,ioos:station:wmo:42048:1,2005-10-17T13:30:00Z,27.9396,-96.8429,-2.0,26.31,11111222 
TABS,ioos:station:wmo:42048:1,2005-10-17T14:00:00Z,27.9396,-96.8429,-2.0,26.33,11111222 
TABS,ioos:station:wmo:42048:1,2005-10-17T14:30:00Z,27.9396,-96.8429,-2.0,26.33,11111222 
TABS,ioos:station:wmo:42048:1,2005-10-17T15:00:00Z,27.9396,-96.8429,-2.0,26.33,11111222 
TABS,ioos:station:wmo:42048:1,2005-10-17T15:30:00Z,27.9396,-96.8429,-2.0,26.32,11111222 
TABS,ioos:station:wmo:42048:1,2005-10-17T16:00:00Z,27.9396,-96.8429,-2.0,26.33,11111222 
TABS,ioos:station:wmo:42048:1,2005-10-17T17:00:00Z,27.9396,-96.8429,-2.0,26.4,11111222 
TABS,ioos:station:wmo:42048:1,2005-10-17T17:30:00Z,27.9396,-96.8429,-2.0,26.44,11111222 
TABS,ioos:station:wmo:42048:1,2005-10-17T18:00:00Z,27.9396,-96.8429,-2.0,26.47,11111222 
TABS,ioos:station:wmo:42048:1,2005-10-17T18:30:00Z,27.9396,-96.8429,-2.0,26.51,11111222 
TABS,ioos:station:wmo:42048:1,2005-10-17T19:00:00Z,27.9396,-96.8429,-2.0,26.59,11111222 
TABS,ioos:station:wmo:42048:1,2005-10-17T20:00:00Z,27.9396,-96.8429,-2.0,26.64,11111222 
TABS,ioos:station:wmo:42048:1,2005-10-17T20:30:00Z,27.9396,-96.8429,-2.0,26.74,11111222 
TABS,ioos:station:wmo:42048:1,2005-10-17T21:00:00Z,27.9396,-96.8429,-2.0,26.75,11111222 
TABS,ioos:station:wmo:42048:1,2005-10-17T21:30:00Z,27.9396,-96.8429,-2.0,26.79,11111222 
TABS,ioos:station:wmo:42048:1,2005-10-17T22:30:00Z,27.9396,-96.8429,-2.0,26.86,11111222 
TABS,ioos:station:wmo:42048:1,2005-10-17T23:00:00Z,27.9396,-96.8429,-2.0,26.9,11111222 
TABS,ioos:station:wmo:42048:1,2005-10-17T23:30:00Z,27.9396,-96.8429,-2.0,26.87,11111222 
TABS,ioos:station:wmo:42048:1,2005-10-18T00:30:00Z,27.9396,-96.8429,-2.0,26.68,11111222 
TABS,ioos:station:wmo:42048:1,2005-10-18T01:00:00Z,27.9396,-96.8429,-2.0,26.68,11111222 
TABS,ioos:station:wmo:42048:1,2005-10-18T01:30:00Z,27.9396,-96.8429,-2.0,26.54,11111222 
TABS,ioos:station:wmo:42048:1,2005-10-18T02:00:00Z,27.9396,-96.8429,-2.0,26.71,11111222 
TABS,ioos:station:wmo:42048:1,2005-10-18T02:30:00Z,27.9396,-96.8429,-2.0,26.81,11111222 
TABS,ioos:station:wmo:42048:1,2005-10-18T03:00:00Z,27.9396,-96.8429,-2.0,26.75,11111222 
TABS,ioos:station:wmo:42048:1,2005-10-18T03:30:00Z,27.9396,-96.8429,-2.0,26.7,11111222 
TABS,ioos:station:wmo:42048:1,2005-10-18T04:00:00Z,27.9396,-96.8429,-2.0,26.65,11111222 
TABS,ioos:station:wmo:42048:1,2005-10-18T04:30:00Z,27.9396,-96.8429,-2.0,26.64,11111222 
TABS,ioos:station:wmo:42048:1,2005-10-18T05:00:00Z,27.9396,-96.8429,-2.0,26.58,11111222 
TABS,ioos:station:wmo:42048:1,2005-10-18T05:30:00Z,27.9396,-96.8429,-2.0,26.59,11111222 
TABS,ioos:station:wmo:42048:1,2005-10-18T06:00:00Z,27.9396,-96.8429,-2.0,26.55,11111222 
TABS,ioos:station:wmo:42048:1,2005-10-18T06:30:00Z,27.9396,-96.8429,-2.0,26.53,11111222 
TABS,ioos:station:wmo:42048:1,2005-10-18T07:00:00Z,27.9396,-96.8429,-2.0,26.49,11111222 
TABS,ioos:station:wmo:42048:1,2005-10-18T07:30:00Z,27.9396,-96.8429,-2.0,26.53,11111222 
TABS,ioos:station:wmo:42048:1,2005-10-18T08:00:00Z,27.9396,-96.8429,-2.0,26.53,11111222 
TABS,ioos:station:wmo:42048:1,2005-10-18T08:30:00Z,27.9396,-96.8429,-2.0,26.52,11111222 
TABS,ioos:station:wmo:42048:1,2005-10-18T09:30:00Z,27.9396,-96.8429,-2.0,26.51,11111222 
TABS,ioos:station:wmo:42048:1,2005-10-18T10:00:00Z,27.9396,-96.8429,-2.0,26.49,11111222 
TABS,ioos:station:wmo:42048:1,2005-10-18T10:30:00Z,27.9396,-96.8429,-2.0,26.45,11111222 
TABS,ioos:station:wmo:42048:1,2005-10-18T11:00:00Z,27.9396,-96.8429,-2.0,26.44,11111222 
TABS,ioos:station:wmo:42048:1,2005-10-18T11:30:00Z,27.9396,-96.8429,-2.0,26.42,11111222 
TABS,ioos:station:wmo:42048:1,2005-10-18T12:00:00Z,27.9396,-96.8429,-2.0,26.43,11111222 
TABS,ioos:station:wmo:42048:1,2005-10-18T12:30:00Z,27.9396,-96.8429,-2.0,26.41,11111222 
TABS,ioos:station:wmo:42048:1,2005-10-18T13:00:00Z,27.9396,-96.8429,-2.0,26.41,11111222 
TABS,ioos:station:wmo:42048:1,2005-10-18T14:00:00Z,27.9396,-96.8429,-2.0,26.41,11111222 
TABS,ioos:station:wmo:42048:1,2005-10-18T15:00:00Z,27.9396,-96.8429,-2.0,26.43,11111222 
TABS,ioos:station:wmo:42048:1,2005-10-18T15:30:00Z,27.9396,-96.8429,-2.0,26.45,11111222 
TABS,ioos:station:wmo:42048:1,2005-10-18T16:00:00Z,27.9396,-96.8429,-2.0,26.49,11111222 
TABS,ioos:station:wmo:42048:1,2005-10-18T16:30:00Z,27.9396,-96.8429,-2.0,26.51,11111222 
TABS,ioos:station:wmo:42048:1,2005-10-18T17:00:00Z,27.9396,-96.8429,-2.0,26.52,11111222 
TABS,ioos:station:wmo:42048:1,2005-10-18T17:30:00Z,27.9396,-96.8429,-2.0,26.53,11111222 
TABS,ioos:station:wmo:42048:1,2005-10-18T18:00:00Z,27.9396,-96.8429,-2.0,26.58,11111222 
TABS,ioos:station:wmo:42048:1,2005-10-18T18:30:00Z,27.9396,-96.8429,-2.0,26.62,11111222 
TABS,ioos:station:wmo:42048:1,2005-10-18T19:00:00Z,27.9396,-96.8429,-2.0,26.82,11111222 
TABS,ioos:station:wmo:42048:1,2005-10-18T19:30:00Z,27.9396,-96.8429,-2.0,26.84,11111222 
TABS,ioos:station:wmo:42048:1,2005-10-18T20:00:00Z,27.9396,-96.8429,-2.0,26.83,11111222 
TABS,ioos:station:wmo:42048:1,2005-10-18T20:30:00Z,27.9396,-96.8429,-2.0,27.11,11111222 
TABS,ioos:station:wmo:42048:1,2005-10-18T21:30:00Z,27.9396,-96.8429,-2.0,27.18,11111222 
TABS,ioos:station:wmo:42048:1,2005-10-18T22:00:00Z,27.9396,-96.8429,-2.0,27.18,11111222 
TABS,ioos:station:wmo:42048:1,2005-10-18T22:30:00Z,27.9396,-96.8429,-2.0,27.26,11111222 
TABS,ioos:station:wmo:42048:1,2005-10-18T23:00:00Z,27.9396,-96.8429,-2.0,27.22,11111222 
TABS,ioos:station:wmo:42048:1,2005-10-18T23:30:00Z,27.9396,-96.8429,-2.0,27.17,11111222 
TABS,ioos:station:wmo:42048:1,2005-10-19T00:30:00Z,27.9396,-96.8429,-2.0,27.05,11111222 
TABS,ioos:station:wmo:42048:1,2005-10-19T01:00:00Z,27.9396,-96.8429,-2.0,27.06,11111222 
TABS,ioos:station:wmo:42048:1,2005-10-19T02:00:00Z,27.9396,-96.8429,-2.0,27.03,11111222 
TABS,ioos:station:wmo:42048:1,2005-10-19T02:30:00Z,27.9396,-96.8429,-2.0,27.0,11111222 
TABS,ioos:station:wmo:42048:1,2005-10-19T03:30:00Z,27.9396,-96.8429,-2.0,26.91,11111222 
TABS,ioos:station:wmo:42048:1,2005-10-19T05:00:00Z,27.9396,-96.8429,-2.0,26.78,11111222 
TABS,ioos:station:wmo:42048:1,2005-10-19T06:00:00Z,27.9396,-96.8429,-2.0,26.71,11111222 
TABS,ioos:station:wmo:42048:1,2005-10-19T06:30:00Z,27.9396,-96.8429,-2.0,26.67,11111222 
TABS,ioos:station:wmo:42048:1,2005-10-19T07:00:00Z,27.9396,-96.8429,-2.0,26.65,11111222 
TABS,ioos:station:wmo:42048:1,2005-10-19T07:30:00Z,27.9396,-96.8429,-2.0,26.62,11111222 
TABS,ioos:station:wmo:42048:1,2005-10-19T08:00:00Z,27.9396,-96.8429,-2.0,26.59,11111222 
TABS,ioos:station:wmo:42048:1,2005-10-19T08:30:00Z,27.9396,-96.8429,-2.0,26.59,11111222 
TABS,ioos:station:wmo:42048:1,2005-10-19T09:00:00Z,27.9396,-96.8429,-2.0,26.55,11111222 
TABS,ioos:station:wmo:42048:1,2005-10-19T09:30:00Z,27.9396,-96.8429,-2.0,26.54,11111222 
TABS,ioos:station:wmo:42048:1,2005-10-19T10:00:00Z,27.9396,-96.8429,-2.0,26.51,11111222 
TABS,ioos:station:wmo:42048:1,2005-10-19T10:30:00Z,27.9396,-96.8429,-2.0,26.5,11111222 
TABS,ioos:station:wmo:42048:1,2005-10-19T11:00:00Z,27.9396,-96.8429,-2.0,26.5,11111222 
TABS,ioos:station:wmo:42048:1,2005-10-19T11:30:00Z,27.9396,-96.8429,-2.0,26.5,11111222 
TABS,ioos:station:wmo:42048:1,2005-10-19T12:00:00Z,27.9396,-96.8429,-2.0,26.48,11111222 